Location: Cabannes
(43.8593°N, 4.9510°E)
Time: 16:56:50
(UTC+00:00)

Daily predictions for brighter satellites

Satellite Brightness Start Highest point End
(mag) Time Altitude Azimuth Time Altitude Azimuth Time Altitude Azimuth
Cosmos 1733 Rocket 4.3 19:40:49 10° NNW 19:44:59 44° W 19:49:05 10° SSW
CZ-2C R/B 3.6 19:41:48 10° NNE 19:46:17 73° ESE 19:50:47 10° S
Okean 1-7 3.3 19:42:21 10° SSE 19:46:27 47° E 19:50:33 10° NNE
NOSS 3-1 (C) 3.5 19:41:47 10° SW 19:47:12 81° NW 19:53:33 10° NE
STARLINK-1204 3.6 19:43:08 10° SW 19:47:13 62° SE 19:51:19 10° ENE
STARLINK-1158 4.0 19:43:47 10° WNW 19:47:52 58° SW 19:51:56 10° SE
SL-8 R/B 4.3 19:44:11 10° W 19:48:57 63° NNW 19:53:44 10° ENE
NOSS 3-1 (A) 3.2 19:44:04 10° SSW 19:49:25 67° ESE 19:55:36 10° NE
STARLINK-1088 4.5 19:46:06 10° NW 19:50:06 45° NNE 19:54:04 10° E
STARLINK-1238 3.6 19:48:05 10° SW 19:52:12 68° SE 19:56:19 10° ENE
SL-08 RB Rocket 4.4 19:47:52 10° S 19:52:24 55° W 19:56:54 10° NNW
STARLINK-1162 4.1 19:48:48 10° WNW 19:52:50 53° SW 19:56:52 10° SE
STARLINK-1115 4.4 19:51:04 10° NW 19:55:05 47° NNE 19:59:06 10° ESE
STARLINK-1201 3.5 19:53:02 10° SW 19:57:09 75° SE 20:01:18 10° ENE
SPOT 3 Rocket 3.6 19:52:01 10° SSE 19:57:10 85° WSW 20:02:21 10° NNW
BREEZE-M DEB (TANK) 3.2 19:55:31 10° WNW 19:57:50 37° SW 20:00:03 11° SE
ERBS 3.3 19:56:25 10° S 19:59:09 24° SE 20:01:54 10° ENE
STARLINK-1076 4.3 19:56:02 10° NW 20:00:05 50° NNE 20:04:07 10° ESE
NOSS 2-3 (C) 3.6 19:56:01 10° SSW 20:00:11 68° ESE 20:05:04 10° NE
Cosmos 2278 Rocket 2.8 19:56:15 10° S 20:01:22 37° ESE 20:06:32 10° NE
Cosmos 1975 3.2 19:57:43 10° N 20:01:40 48° ENE 20:05:33 10° SSE
Cosmos 1190 Rocket 4.2 19:56:47 10° NNW 20:01:57 61° ENE 20:07:07 10° SSE
STARLINK-1206 3.6 19:57:59 10° SW 20:02:07 81° SE 20:06:17 10° ENE
STARLINK-1159 4.4 19:58:47 10° WNW 20:02:44 44° SW 20:06:38 10° SSE
Cosmos 1624 Rocket 4.1 19:59:13 10° S 20:04:26 62° ESE 20:09:43 10° NNE
Cosmos 614 Rocket 4.0 19:59:45 10° NNW 20:04:52 83° WSW 20:09:57 10° SSE
Cosmos 2034 Rocket 4.2 19:58:52 10° N 20:05:03 75° W 20:11:10 10° S
STARLINK-1092 4.1 20:00:58 10° NW 20:05:03 54° NNE 20:09:07 10° ESE
USA 245 4.3 20:02:38 11° SE 20:05:18 23° ENE 20:07:45 10° NNE
Cosmos 1140 Rocket 3.7 20:01:16 10° NNW 20:06:26 61° ENE 20:11:23 11° SSE
Cosmos 1844 Rocket 3.9 20:01:11 10° SW 20:06:38 47° WNW 20:12:05 10° NNE
STARLINK-1205 3.6 20:02:58 10° SW 20:07:07 87° SE 20:11:16 10° NE
Okean 1 3.4 20:04:06 10° S 20:08:09 82° W 20:12:13 10° N
H-2A R/B 4.1 20:04:39 10° SSW 20:08:45 25° W 20:12:58 10° NW
STARLINK-1080 4.0 20:06:00 10° NW 20:10:06 58° NNE 20:13:58 11° ESE
Cosmos 44 Rocket 4.4 20:05:37 10° NW 20:10:10 40° WSW 20:14:48 10° S
STARLINK-1218 3.6 20:07:55 10° SW 20:12:04 87° NW 20:16:13 10° NE
Meteor 1-19 Rocket 4.2 20:06:41 10° S 20:12:13 71° E 20:17:59 10° NNE
Resurs 01 Rocket 1.6 20:09:12 10° SSE 20:13:39 89° E 20:18:09 10° NNW
STARLINK-1090 3.9 20:10:56 10° NW 20:15:03 62° NNE 20:18:44 13° ESE
Meteor 1-4 Rocket 2.5 20:11:52 10° S 20:15:14 54° E 20:18:37 10° NNE
Cosmos 1782 Rocket 3.6 20:12:17 10° N 20:16:48 84° E 20:21:16 10° S
STARLINK-1254 3.7 20:12:54 10° WSW 20:17:02 81° NNW 20:21:12 10° NE
Cosmos 1515 3.6 20:13:26 10° S 20:17:14 76° E 20:21:03 10° NNE
Sich 1 Rocket 3.9 20:12:46 10° N 20:17:18 56° ENE 20:21:21 13° SSE
Cosmos 1371 Rocket 4.0 20:13:44 10° SSW 20:18:59 88° WNW 20:24:14 10° NNE
STARLINK-1089 3.8 20:15:54 10° NW 20:20:02 67° NNE 20:23:30 14° ESE
Abrixas rocket 3.5 20:18:09 10° WNW 20:20:55 35° N 20:23:41 10° ENE
STARLINK-1231 3.8 20:17:54 10° WSW 20:22:02 75° NNW 20:26:11 10° NE
Cosmos 1703 Rocket 4.1 20:17:59 10° SSW 20:22:15 60° W 20:26:34 10° N
ERS-1 Rocket 4.1 20:20:14 13° ESE 20:23:54 30° ENE 20:28:16 10° N
STARLINK-1246 4.4 20:20:56 10° SSW 20:24:32 29° SE 20:28:09 10° ENE
Meteor 1-18 Rocket 4.4 20:19:27 10° SSW 20:25:01 77° WNW 20:30:41 10° N
STARLINK-1107 3.7 20:20:53 10° NW 20:25:01 72° NNE 20:28:17 16° ESE
ISS -1.9 20:22:14 10° NW 20:25:11 27° NNE 20:28:08 10° ENE
STARLINK-1232 4.0 20:22:53 10° WSW 20:27:01 69° NNW 20:31:10 10° NE
Cosmos 2279 Rocket 4.4 20:21:54 10° N 20:27:54 46° ENE 20:32:42 16° SE
Cosmos 1954 Rocket 4.2 20:22:56 10° NNW 20:28:09 61° ENE 20:32:15 16° SE
Terra 3.5 20:26:03 12° ESE 20:29:05 21° ENE 20:32:35 10° NNE
STARLINK-1224 4.3 20:25:48 10° SSW 20:29:29 32° SE 20:33:12 10° ENE
STARLINK-1066 3.7 20:25:53 10° NW 20:30:02 77° NNE 20:33:06 18° ESE
Okean 2 Rocket 3.5 20:26:52 10° N 20:31:09 47° ENE 20:34:09 18° SE
STARLINK-1208 4.1 20:27:54 10° WSW 20:32:01 64° NNW 20:36:08 10° NE
STARLINK-1225 4.2 20:30:39 10° SSW 20:34:25 35° SE 20:38:13 10° ENE
Spot 2 Rocket 3.5 20:30:33 15° SSE 20:34:46 71° ENE 20:39:48 10° N
STARLINK-1081 3.6 20:30:51 10° NW 20:35:01 83° NE 20:37:52 19° ESE
Lacrosse 5 2.8 20:31:58 10° NW 20:36:47 42° NNE 20:41:04 13° E
STARLINK-1271 4.2 20:32:53 10° WSW 20:36:59 60° NNW 20:41:06 10° NE
STARLINK-1230 4.0 20:35:33 10° SSW 20:39:23 38° SE 20:43:15 10° ENE
Meteor 1-12 Rocket 4.4 20:33:52 10° N 20:39:28 60° ENE 20:43:40 18° SSE
COSMOS 2406 3.3 20:33:41 10° NNW 20:39:29 83° WSW 20:44:03 17° SSE
STARLINK-1070 3.6 20:35:49 10° NW 20:39:59 89° NE 20:42:38 21° SE
MetOp-B 4.2 20:35:46 13° SSE 20:40:37 84° WSW 20:46:01 10° NNW
CREW DRAGON DEMO-1 DEB 4.2 20:38:01 10° WNW 20:40:44 28° SW 20:42:05 20° S
Cosmos 1544 3.6 20:37:21 10° NNW 20:40:56 57° W 20:44:03 13° S
Meteor 2-4 Rocket 3.5 20:36:27 10° S 20:41:50 78° E 20:47:12 10° NNE
STARLINK-1154 4.4 20:37:55 10° WSW 20:41:59 56° NNW 20:46:05 10° NE
Cosmos 676 Rocket 4.0 20:37:06 10° NNW 20:42:23 83° ENE 20:46:14 19° SSE
Cosmos 371 Rocket 3.6 20:38:42 13° S 20:42:47 45° ESE 20:47:25 10° NNE
SAR-Lupe-2 3.5 20:39:47 10° NNE 20:43:23 72° ESE 20:46:22 14° S
STARLINK-1243 3.9 20:40:26 10° SSW 20:44:20 42° SE 20:48:15 10° ENE
Cosmos 2151 Rocket 4.1 20:40:17 10° N 20:44:40 46° ENE 20:47:15 22° SE
STARLINK-1069 3.6 20:40:48 10° WNW 20:44:57 84° SW 20:47:25 24° SE
Cosmos 1634 Rocket 4.1 20:38:54 10° N 20:45:14 83° W 20:51:10 12° S
SL-4 R/B 2.5 20:44:02 10° NNW 20:46:53 31° NE 20:48:05 22° E
STARLINK-1197 4.5 20:42:55 10° WSW 20:46:58 52° NNW 20:51:02 10° NE
Cosmos 2056 Rocket 4.1 20:42:26 10° SW 20:47:27 58° WNW 20:52:31 10° NNE
Meteor 1-13 Rocket 4.3 20:44:10 14° S 20:48:56 59° E 20:54:31 10° NNE
STARLINK-1236 3.8 20:45:21 10° SSW 20:49:19 46° SE 20:53:17 10° ENE
STARLINK-1085 3.6 20:45:48 10° WNW 20:49:57 78° SW 20:52:13 26° SE
STARLINK-1086 3.6 20:50:46 10° WNW 20:54:54 72° SW 20:56:59 28° SE
Crew Dragon 2.1 20:55:03 10° NW 20:56:48 21° NNE 20:57:34 18° NE
STARLINK-1269 3.6 20:55:10 10° SW 20:59:13 55° SE 21:03:16 10° ENE
Cosmos 2297 4.5 20:57:27 23° SE 20:59:50 31° ESE 21:04:48 10° NE
STARLINK-1095 3.7 20:55:46 10° WNW 20:59:53 66° SW 21:01:47 30° SE
IGS 5A 3.5 20:57:51 22° S 21:00:30 75° WSW 21:04:41 10° NNW
CARTOSAT-1 3.7 21:01:34 28° SE 21:03:43 61° ENE 21:08:00 10° N
STARLINK-1200 3.5 21:00:07 10° SW 21:04:11 60° SE 21:08:17 10° ENE
STARLINK-1077 3.8 21:00:46 10° WNW 21:04:51 60° SW 21:06:34 32° SSE
Okean 3 4.0 21:02:16 10° SSW 21:06:30 60° W 21:10:48 10° N
BREEZE M DEB (TANK) 2.7 21:00:11 10° WSW 21:06:45 78° SSE 21:09:17 10° ENE
STARLINK-1192 3.5 21:05:04 10° SW 21:09:10 66° SE 21:13:17 10° ENE
STARLINK-1075 3.9 21:05:45 10° WNW 21:09:48 55° SW 21:11:20 33° SSE
STARLINK-1108 4.4 21:08:02 10° NW 21:12:03 46° NNE 21:14:35 20° E
SPOT 5 3.1 21:10:01 27° SSE 21:12:49 72° ENE 21:18:07 10° N
Cosmos 2082 Rocket 2.2 21:07:13 10° NNW 21:12:57 74° ENE 21:16:03 28° SE
STARLINK-1244 3.5 21:10:01 10° SW 21:14:08 72° SE 21:18:16 10° ENE
STARLINK-1093 4.0 21:10:46 10° WNW 21:14:46 50° SW 21:16:08 35° S
Cosmos 1461 3.4 21:15:49 35° SE 21:16:12 36° ESE 21:20:08 10° NE
STARLINK-1071 4.3 21:13:00 10° NW 21:17:03 49° NNE 21:19:22 23° E
Cosmos 1833 Rocket 2.9 21:11:39 10° NNW 21:17:13 65° WSW 21:20:27 25° S
Cosmos 1452 Rocket 3.5 21:12:54 10° SSW 21:18:10 87° WNW 21:23:30 10° NNE
STARLINK-1138 3.5 21:14:58 10° SW 21:19:05 78° SE 21:23:14 10° ENE
STARLINK-1074 4.1 21:15:45 10° WNW 21:19:43 45° SW 21:20:54 35° S
Cosmos 1378 4.2 21:20:31 29° E 21:20:38 29° E 21:23:53 10° NNE
STARLINK-1110 4.2 21:17:05 10° NW 21:21:09 52° NNE 21:23:17 25° E
USA 215 4.3 21:17:12 10° E 21:23:13 40° NNE 21:29:14 10° NW
Aureole 2 Rocket 3.2 21:24:15 31° ENE 21:24:15 31° ENE 21:26:27 10° NE
Cosmos 1300 Rocket 4.1 21:19:32 10° NNW 21:23:53 53° W 21:26:23 23° SSW
STARLINK-1143 3.5 21:19:55 10° SW 21:24:03 84° SE 21:28:13 10° ENE
Cosmos 2369 Rocket 3.8 21:26:15 16° E 21:26:15 16° E 21:29:37 10° ENE
Cosmos 304 Rocket 3.9 21:24:48 34° SSE 21:26:38 55° ESE 21:31:19 10° NNE
STARLINK-1124 4.1 21:22:56 10° NW 21:27:02 56° NNE 21:28:55 29° E
STARLINK-1203 3.6 21:23:31 10° SW 21:27:43 89° WNW 21:31:57 10° NE
STARLINK-1241 3.5 21:24:54 10° SW 21:29:02 89° NW 21:33:12 10° NE
Cosmos 1943 Rocket 3.3 21:28:55 24° ESE 21:29:20 24° ESE 21:33:41 10° NE
STARLINK-1088 4.4 21:25:47 10° WNW 21:29:38 38° SW 21:30:28 34° SSW
Cosmos 1805 4.1 21:27:20 10° N 21:30:58 35° ENE 21:31:34 33° E
STARLINK-1122 4.0 21:27:54 10° NW 21:32:01 60° NNE 21:33:42 33° E
Cosmos 1066 Rocket 4.0 21:31:09 29° S 21:33:57 75° E 21:39:19 10° NNE
STARLINK-1239 3.6 21:29:53 10° WSW 21:34:01 83° NW 21:38:11 10° NE
STARLINK-1115 4.5 21:30:48 10° WNW 21:34:35 35° SW 21:35:14 33° SSW
ERBS 4.0 21:32:16 10° WSW 21:35:20 34° NW 21:38:24 10° NNE
Cosmos 332 Rocket 3.9 21:32:39 18° SSW 21:36:21 78° WNW 21:41:17 10° NNE
STARLINK-1126 3.9 21:32:55 10° NW 21:37:03 65° NNE 21:38:32 37° E
STARLINK-1240 3.7 21:34:52 10° WSW 21:39:01 77° NNW 21:43:10 10° NE
Cosmos 1674 Rocket 3.8 21:36:52 28° SSW 21:39:03 68° W 21:43:27 10° N
STARLINK-1082 3.7 21:37:51 10° NW 21:41:59 70° NNE 21:43:15 42° ESE
Meteor 1-15 Rocket 4.3 21:37:28 10° NNW 21:43:25 84° W 21:46:14 33° S
Cosmos 972 Rocket 4.4 21:40:09 26° S 21:43:44 78° ESE 21:50:27 10° NNE
CENTAUR R/B 4.5 21:36:55 10° NNW 21:43:48 32° NE 21:51:20 10° E
STARLINK-1216 3.8 21:39:51 10° WSW 21:43:59 71° NNW 21:48:07 10° NE
NOSS 2-2 (E) 3.5 21:45:11 46° E 21:45:11 46° E 21:48:28 10° NE
Cosmos 1378 Rocket 3.6 21:43:25 36° SSW 21:45:12 77° W 21:49:38 10° N
Cosmos 2278 Rocket 3.7 21:40:14 10° WSW 21:45:26 36° NW 21:50:40 10° N
STARLINK-1100 3.6 21:42:50 10° NW 21:46:59 75° NNE 21:48:03 48° ESE
STARLINK-1237 3.9 21:44:51 10° WSW 21:48:58 66° NNW 21:53:06 10° NE
Cosmos 2026 Rocket 4.4 21:48:12 34° SE 21:50:20 46° E 21:56:19 10° NNE
STARLINK-1083 3.6 21:47:47 10° NW 21:51:57 81° NE 21:52:48 54° ESE
deb Kosmos-1763 3.9 21:48:43 10° NNW 21:52:19 70° ENE 21:52:28 68° E
Cosmos 1741 Rocket 4.2 21:47:34 10° NNW 21:52:45 65° WSW 21:54:36 39° S
STARLINK-1202 4.1 21:49:52 10° WSW 21:53:58 62° NNW 21:58:05 10° NE
Cosmos 1437 Rocket 4.0 21:53:11 21° SW 21:55:05 36° WNW 21:58:37 10° N
Okean 2 3.6 21:56:17 50° ESE 21:56:30 51° E 22:00:32 10° NNE
Abrixas rocket 3.3 21:54:03 10° WNW 21:56:50 36° N 21:57:11 35° NNE
STARLINK-1125 3.5 21:52:46 10° NW 21:56:56 87° NE 21:57:36 62° ESE
Cosmos 1975 Rocket 3.3 21:57:35 47° ESE 21:58:02 49° E 22:02:19 10° NNE
SeaSat 1 2.4 21:55:30 10° NE 22:00:23 60° ESE 22:01:28 48° SSE
STARLINK-1109 3.4 21:57:45 10° NW 22:01:55 87° SSW 22:02:23 69° SE
ISS -3.4 21:58:53 10° WNW 22:01:47 62° WNW 22:01:47 62° WNW
ERS-1 Rocket 4.1 22:00:14 23° SW 22:02:36 34° W 22:07:11 10° NNW
STARLINK-1246 4.3 21:59:53 10° WSW 22:03:56 54° NNW 22:08:00 10° NE
Nadezhda 4 Rocket 4.2 22:00:37 25° SSW 22:04:21 66° W 22:10:28 10° N
Terra 2.4 22:04:56 35° SSW 22:06:29 48° W 22:11:06 10° NNW
STARLINK-1091 3.4 22:02:43 10° WNW 22:06:53 80° SW 22:07:09 75° SSE
NOSS 2-2 (C) 3.3 22:08:29 60° ENE 22:08:29 60° ENE 22:11:49 10° NE
STARLINK-1224 4.5 22:04:54 10° WSW 22:08:56 50° NNW 22:12:59 10° NE
ATLAS 2AS CENTAUR R/B 4.0 22:08:00 26° ESE 22:08:59 27° ESE 22:15:20 10° NE
Cosmos 1242 Rocket 4.1 22:11:39 26° ENE 22:11:39 26° ENE 22:14:01 10° NNE
Cosmos 1110 Rocket 4.0 22:08:57 33° SSW 22:11:19 76° WNW 22:16:31 10° NNE
STARLINK-1072 3.5 22:07:42 10° WNW 22:11:51 74° SW 22:11:56 73° SSW
NOSS 3-2 (A) 4.4 22:08:58 10° NNW 22:16:21 60° NE 22:21:24 25° ESE
BREEZE-M DEB (TANK) 4.3 22:12:46 10° WNW 22:16:30 38° N 22:20:03 10° ENE
STARLINK-1096 3.6 22:12:43 10° WNW 22:16:43 67° SW 22:16:43 67° SW
Spot 4 4.1 22:17:50 48° ESE 22:18:49 58° ENE 22:23:35 10° N
BREEZE-M DEB (TANK) 3.9 22:03:45 10° WSW 22:19:10 75° NNW 22:23:06 10° ENE
Cosmos 1766 3.3 22:15:28 10° NNW 22:19:25 69° W 22:19:37 67° WSW
Cosmos 1271 Rocket 4.2 22:20:18 25° ENE 22:20:18 25° ENE 22:22:50 10° NNE
SL-4 R/B 4.0 22:18:02 10° WNW 22:18:54 13° W 22:18:54 13° W
Lacrosse 5 2.3 22:15:01 10° WNW 22:19:47 43° SW 22:20:15 42° SW
Okean 1 Rocket 4.2 22:17:21 10° NNW 22:21:28 36° W 22:22:37 31° WSW
STARLINK-1079 3.8 22:17:43 10° WNW 22:21:31 60° WSW 22:21:31 60° WSW
USA 238 DEB 4.1 22:17:49 10° NNW 22:24:59 64° NE 22:28:52 30° ESE
USA 238 4.1 22:17:54 10° NNW 22:25:04 64° NE 22:28:59 30° ESE
EXPRESS MD2 4.3 22:21:15 10° WSW 22:25:07 70° NNW 22:33:14 10° ENE
Cosmos 1733 3.2 22:22:50 10° NNW 22:26:32 73° WNW 22:26:32 73° WNW
STARLINK-1116 4.0 22:22:42 10° WNW 22:26:17 52° WSW 22:26:17 52° WSW
Cosmos 1707 4.2 22:28:29 27° ENE 22:28:29 27° ENE 22:31:11 10° NNE
SL-4 R/B 4.1 22:29:44 10° NNE 22:29:44 10° NNE 22:29:48 10° NNE
Cosmos 1455 Rocket 2.8 22:28:02 10° N 22:32:24 83° E 22:32:37 79° SE
STARLINK-1101 4.4 22:29:58 10° NW 22:34:00 48° NNE 22:35:04 38° ENE
Cosmos 1953 4.0 22:31:01 10° NNE 22:34:15 23° ENE 22:34:15 23° ENE
Cosmos 1486 Rocket 4.5 22:29:06 10° NNW 22:34:18 51° ENE 22:35:35 42° ESE
Cosmos 1025 Rocket 3.8 22:34:49 38° E 22:34:49 38° E 22:38:30 10° NNE
COSMOS 2455 4.4 22:35:47 19° E 22:35:47 19° E 22:39:30 10° ENE
STARLINK-1094 4.4 22:32:43 10° WNW 22:35:52 40° WSW 22:35:52 40° WSW
Cosmos 1302 Rocket 3.9 22:37:48 55° SSW 22:39:00 89° ESE 22:44:20 10° NNE
STARLINK-1102 4.3 22:34:56 10° NW 22:39:00 51° NNE 22:39:51 43° ENE
STARLINK-1111 4.2 22:39:55 10° NW 22:44:00 55° NNE 22:44:38 49° ENE
Cosmos 1758 3.7 22:40:37 10° N 22:44:24 57° ENE 22:44:24 57° ENE
Meteor 2-13 Rocket 4.5 22:45:42 44° SSW 22:47:47 76° W 22:53:58 10° N
STARLINK-1073 4.0 22:44:53 10° NW 22:48:59 59° NNE 22:49:25 55° ENE
Cosmos 1900 4.2 22:44:38 10° NNW 22:49:43 87° SW 22:50:19 70° SSE
Aureole 3 Rocket 4.1 22:46:43 10° N 22:52:25 88° W 22:54:53 46° S
STARLINK-1121 3.9 22:49:51 10° NW 22:53:58 63° NNE 22:54:11 62° NE
Cosmos 2082 Rocket 4.1 22:52:51 10° WNW 22:56:21 17° W 22:57:54 15° WSW
SL-4 R/B 4.0 22:59:59 22° E 22:59:59 22° E 23:02:01 10° ENE
Cosmos 1536 Rocket 3.7 22:57:54 61° ENE 22:57:54 61° ENE 23:01:58 10° NNE
EO 1 Del DPAF 4.2 22:55:10 10° N 22:58:43 39° WNW 22:58:54 38° W
STARLINK-1106 3.8 22:54:49 10° NW 22:58:57 68° NNE 22:58:58 68° NNE
ATLAS 5 CENTAUR R/B 3.5 23:00:58 20° NE 23:00:58 20° NE 23:01:42 10° NE
SL-27 R/B 3.3 22:56:47 10° NNW 22:59:33 50° NNW 22:59:33 50° NNW
ALOS 2 2.5 23:01:01 74° E 23:01:06 75° ENE 23:05:29 10° N
Cosmos 1470 3.0 22:57:31 10° NNW 23:00:55 63° NW 23:00:55 63° NW
Meteor 2-8 Rocket 4.4 22:56:09 10° N 23:02:18 74° E 23:03:50 52° SSE
APEX 4.4 23:01:32 53° S 23:03:01 70° ESE 23:08:45 10° NNE
Thor Agena Rocket 4.3 22:58:15 10° N 23:03:19 47° WNW 23:05:15 32° WSW
STARLINK-1112 3.8 22:59:49 10° NW 23:03:46 71° N 23:03:46 71° N
USA 215 3.1 23:03:20 41° SE 23:05:53 84° SW 23:12:28 10° NW
Cosmos 1544 Rocket 3.9 23:04:11 10° NNW 23:08:21 55° W 23:08:21 55° W
Cosmos 1992 Rocket 3.9 23:08:31 63° SE 23:08:50 65° ESE 23:14:00 10° NNE
STARLINK-1128 3.8 23:04:47 10° NW 23:08:33 69° NNW 23:08:33 69° NNW
Cosmos 2369 Rocket 2.2 23:07:59 48° SW 23:09:34 75° WNW 23:15:16 10° NNE
COSMOS 2487 4.4 23:09:14 10° N 23:11:49 22° ENE 23:11:49 22° ENE
Cosmos 1943 Rocket 2.8 23:10:23 32° WSW 23:12:41 52° WNW 23:18:09 10° NNE
STARLINK-1113 3.9 23:09:45 10° NW 23:13:19 64° NW 23:13:19 64° NW
SL-8 R/B 3.6 23:10:00 10° WNW 23:14:50 89° NE 23:15:05 81° ESE
Cosmos 2292 Rocket 3.8 23:17:52 54° ENE 23:17:52 54° ENE 23:21:00 10° NNE
S3M 3.9 23:11:34 10° N 23:17:44 85° W 23:19:11 56° S
STARLINK-1119 4.0 23:14:44 10° NW 23:18:06 57° WNW 23:18:06 57° WNW
Cosmos 1655 Rocket 3.9 23:20:26 53° SSW 23:22:02 81° W 23:28:19 10° N
NOSS 3-2 (C) 4.0 23:15:06 10° NW 23:22:45 88° NE 23:26:34 37° SE
STARLINK-1114 4.2 23:19:43 10° WNW 23:22:52 51° WNW 23:22:52 51° WNW
ATLAS CENTAUR R/B 2.9 23:25:24 28° E 23:25:24 28° E 23:27:54 10° NE
Cosmos 1726 2.8 23:22:45 10° N 23:25:42 53° N 23:25:42 53° N
STARLINK-1130 (DARKSAT) 4.4 23:24:43 10° WNW 23:27:40 45° WNW 23:27:40 45° WNW
NOSS 3-4 (A) 3.3 23:29:50 60° S 23:30:49 71° ESE 23:37:04 10° NE
NOSS 3-4 (C) 3.3 23:29:57 59° S 23:30:54 70° ESE 23:37:10 10° NE
Landsat 4 4.4 23:29:38 10° NNE 23:32:31 51° NE 23:32:31 51° NE
ATLAS 3B R/B 3.4 23:26:53 10° NNW 23:33:27 49° NE 23:38:47 17° ESE
Cosmos 1606 Rocket 4.2 23:30:51 10° N 23:35:00 44° ENE 23:35:04 44° E
CENTAUR R/B 3.1 23:27:22 10° NW 23:35:33 89° WSW 23:39:47 36° SE
SeaSat 1 4.5 23:33:42 10° N 23:37:32 23° NW 23:41:14 10° W
RESURS DK-1 4.3 23:39:42 19° E 23:39:42 19° E 23:41:47 10° NE
Meteor 2-5 Rocket 4.2 23:41:51 42° ESE 23:42:41 45° E 23:47:58 10° NNE
YAOGAN 11 4.0 23:46:53 81° WNW 23:46:53 81° WNW 23:51:06 10° NNW
Cosmos 1626 3.9 23:50:51 25° ENE 23:50:51 25° ENE 23:53:22 10° NNE
Helios 1A 3.5 23:52:18 51° WNW 23:52:18 51° WNW 23:55:57 10° NNW
Cosmos 1656 Rocket 3.8 23:51:33 50° WSW 23:52:53 67° WNW 23:58:28 10° NNE
Cosmos 1503 Rocket 4.1 23:48:40 10° NNW 23:53:53 59° WSW 23:54:12 58° WSW
